FW3585 Weather Reports


Display with metric or nautical units.
time (UTC)temp
F
wind
direction
speed
MPH
gust
MPH
rain 1hr
in
rain 24hr
in
rain mn
in
humidity
%
barometer
mb
20260904151510 90 344 2.0 10.0 0.00 0.00 0.00 62 1014.8
20260904150005 90 306 0.0 5.0 0.00 0.00 0.00 61 1014.9
20260904144500 89 333 2.0 4.0 0.00 0.00 0.00 64 1014.9
20260904143057 88 311 4.0 6.0 0.00 0.00 0.00 65 1014.9
20260904141553 88 319 3.0 6.0 0.00 0.00 0.00 66 1014.9
20260904140049 87 279 0.0 4.0 0.00 0.00 0.00 69 1015.0
20260904134544 86 242 0.0 1.0 0.00 0.00 0.00 70 1014.9
20260904133046 85 223 3.0 5.0 0.00 0.00 0.00 72 1014.8
20260904131542 84 248 1.0 3.0 0.00 0.00 0.00 74 1015.0
20260904130032 82 239 0.0 4.0 0.00 0.00 0.00 76 1015.1
20260904124527 81 322 1.0 4.0 0.00 0.00 0.00 78 1015.3
20260904123023 80 332 0.0 0.0 0.00 0.00 0.00 79 1015.1
20260904121519 79 105 0.0 0.0 0.00 0.00 0.00 81 1015.2
20260904120020 78 107 0.0 0.0 0.00 0.00 0.00 82 1015.1
20260904114509 77 108 0.0 0.0 0.00 0.00 0.00 84 1015.1
20260904113014 75 108 0.0 0.0 0.00 0.00 0.00 85 1015.1
20260904111502 75 108 0.0 0.0 0.00 0.00 0.00 86 1015.0
20260904104600 75 107 0.0 0.0 0.00 0.00 0.00 84 1014.8
20260904103059 76 107 0.0 0.0 0.00 0.00 0.00 83 1014.7
20260904101559 76 107 0.0 0.0 0.00 0.00 0.00 83 1014.5
20260904100107 76 106 0.0 0.0 0.00 0.00 0.00 82 1014.5
20260904094604 77 103 0.0 0.0 0.00 0.00 0.00 81 1014.6
20260904093051 77 94 0.0 0.0 0.00 0.00 0.00 80 1014.6
20260904091602 78 92 0.0 0.0 0.00 0.00 0.00 78 1014.5
20260904090046 79 49 0.0 0.0 0.00 0.00 0.00 78 1014.4
20260904084544 79 31 0.0 0.0 0.00 0.00 0.00 77 1014.3
20260904083048 79 250 0.0 0.0 0.00 0.00 0.00 77 1014.1
20260904081542 79 267 0.0 0.0 0.00 0.00 0.00 76 1013.9
20260904080041 79 338 0.0 0.0 0.00 0.00 0.00 76 1013.8
20260904074547 80 325 0.0 0.0 0.00 0.00 0.00 75 1013.7
20260904073047 80 248 0.0 0.0 0.00 0.00 0.00 75 1013.6
20260904071537 80 313 0.0 2.0 0.00 0.00 0.00 75 1013.6
20260904070035 81 249 0.0 5.0 0.00 0.00 0.00 74 1013.7
20260904064535 81 248 0.0 8.0 0.00 0.00 0.00 74 1013.6
20260904063033 81 5 0.0 2.0 0.00 0.00 0.00 74 1013.8
20260904061531 81 244 0.0 1.0 0.00 0.00 0.00 73 1014.1
20260904060040 82 220 0.0 0.0 0.00 0.00 0.00 72 1014.6
20260904054538 82 234 0.0 0.0 0.00 0.00 0.00 71 1014.8
20260904053035 82 221 0.0 2.0 0.00 0.00 0.00 70 1015.1
20260904051524 83 252 0.0 1.0 0.00 0.00 0.00 69 1015.3
20260904050030 83 248 0.0 3.0 0.00 0.00 0.00 68 1015.6
20260904044515 84 293 0.0 1.0 0.00 0.00 0.00 66 1015.5
20260904043020 85 279 0.0 9.0 0.00 0.00 0.00 65 1015.7
20260904041510 85 227 2.0 7.0 0.00 0.00 0.00 64 1015.7
20260904040009 85 250 3.0 7.0 0.00 0.00 0.00 62 1015.7
20260904034507 85 263 0.0 3.0 0.00 0.00 0.00 62 1015.8
20260904033020 85 244 0.0 3.0 0.00 0.00 0.00 62 1015.7
20260904031506 85 240 0.0 4.0 0.00 0.00 0.00 63 1015.4
20260904030006 84 227 0.0 1.0 0.00 0.00 0.00 64 1015.3
20260904024505 85 182 0.0 3.0 0.00 0.00 0.00 63 1015.2
20260904023004 86 232 0.0 0.0 0.00 0.00 0.00 61 1015.3
20260904021512 86 235 0.0 0.0 0.00 0.00 0.00 60 1015.2
20260904020004 86 235 0.0 0.0 0.00 0.00 0.00 60 1015.2
20260904014503 86 235 0.0 0.0 0.00 0.00 0.00 60 1015.3
20260904013003 87 235 0.0 0.0 0.00 0.00 0.00 59 1015.2
20260904011503 87 235 0.0 0.0 0.00 0.00 0.00 58 1015.2
20260904010008 88 235 0.0 0.0 0.00 0.00 0.00 58 1015.1
20260904004501 89 235 0.0 0.0 0.00 0.00 0.00 56 1015.1
20260904003001 89 235 0.0 0.0 0.00 0.00 0.00 55 1015.0
20260904001601 90 234 0.0 0.0 0.00 0.00 0.00 56 1014.9
20260904000100 92 238 0.0 0.0 0.00 0.00 0.00 54 1014.5
20260903234559 93 238 0.0 2.0 0.00 0.00 0.00 53 1014.3
20260903233103 94 244 2.0 6.0 0.00 0.00 0.00 51 1014.0
20260903231559 95 207 0.0 3.0 0.00 0.00 0.00 50 1013.4
20260903230103 95 209 0.0 4.0 0.00 0.00 0.00 48 1013.4
20260903224558 96 215 5.0 9.0 0.00 0.00 0.00 47 1013.3
20260903223108 97 227 6.0 10.0 0.00 0.00 0.00 45 1013.3
20260903221556 97 231 5.0 11.0 0.00 0.00 0.00 43 1013.5
20260903220055 98 212 6.0 9.0 0.00 0.00 0.00 42 1013.6
20260903214553 97 242 0.0 4.0 0.00 0.00 0.00 43 1013.9
20260903213052 98 229 2.0 4.0 0.00 0.00 0.00 44 1014.0
20260903211605 97 336 1.0 3.0 0.00 0.00 0.00 46 1014.1
20260903210049 96 232 3.0 6.0 0.00 0.00 0.00 44 1014.2
20260903204552 98 217 2.0 10.0 0.00 0.00 0.00 46 1014.3
20260903203046 98 196 5.0 10.0 0.00 0.00 0.00 43 1014.3
20260903201547 98 267 3.0 7.0 0.00 0.00 0.00 43 1014.5
20260903200043 99 240 2.0 6.0 0.00 0.00 0.00 42 1014.6
20260903194540 98 248 5.0 9.0 0.00 0.00 0.00 43 1014.8
20260903193037 98 155 0.0 5.0 0.00 0.00 0.00 43 1015.2
20260903191535 98 222 1.0 5.0 0.00 0.00 0.00 43 1015.3
20260903190031 99 204 4.0 8.0 0.00 0.00 0.00 42 1015.5
20260903184528 97 313 1.0 6.0 0.00 0.00 0.00 45 1015.7
20260903183027 96 78 1.0 7.0 0.00 0.00 0.00 45 1015.8
20260903181524 96 170 1.0 5.0 0.00 0.00 0.00 47 1016.1
20260903180022 96 335 3.0 6.0 0.00 0.00 0.00 45 1016.2
20260903174520 95 232 2.0 9.0 0.00 0.00 0.00 49 1016.4
20260903173022 95 140 2.0 5.0 0.00 0.00 0.00 47 1016.4
20260903171514 93 339 1.0 7.0 0.00 0.00 0.00 49 1016.5
20260903170016 93 105 2.0 5.0 0.00 0.00 0.00 51 1016.7
20260903164508 93 298 0.0 4.0 0.00 0.00 0.00 52 1016.8
20260903163009 92 315 3.0 11.0 0.00 0.00 0.00 54 1017.0
20260903161502 93 5 1.0 5.0 0.00 0.00 0.00 57 1017.2
20260903160109 91 92 4.0 10.0 0.00 0.00 0.00 56 1017.4
20260903154556 91 47 4.0 8.0 0.00 0.00 0.00 58 1017.3
20260903153101 91 15 4.0 11.0 0.00 0.00 0.00 59 1017.5